EN

Hourly Weather Nevklya

Today, 31 October, Saturday

Time Temperature Precipitation Wind Pressure Humidity
00:00 +8°C° 0.1 mm 2 mps 748 mmHg 94%
01:00 +8°C° 0.1 mm 2 mps 748 mmHg 94%
02:00 +8°C° 0 mm 2 mps 748 mmHg 93%
03:00 +8°C° 0 mm 2 mps 748 mmHg 93%
04:00 +8°C° 0 mm 2 mps 748 mmHg 94%
05:00 +8°C° 0 mm 2 mps 748 mmHg 94%
06:00 +8°C° 0.2 mm 2 mps 748 mmHg 94%
07:00 +8°C° 0.2 mm 2 mps 748 mmHg 93%
08:00 +8°C° 0 mm 2 mps 748 mmHg 94%
09:00 +8°C° 0.2 mm 2 mps 748 mmHg 93%
10:00 +8°C° 0.2 mm 3 mps 748 mmHg 93%
11:00 +8°C° 0.2 mm 3 mps 748 mmHg 92%
12:00 +9°C° 0.4 mm 3 mps 748 mmHg 92%
13:00 +9°C° 0.4 mm 3 mps 748 mmHg 92%
14:00 +9°C° 0.4 mm 3 mps 748 mmHg 92%
15:00 +8°C° 0.8 mm 4 mps 748 mmHg 92%
16:00 +8°C° 0.8 mm 4 mps 748 mmHg 93%
17:00 +8°C° 0.8 mm 4 mps 748 mmHg 93%
18:00 +8°C° 0.6 mm 5 mps 748 mmHg 91%
19:00 +8°C° 0.6 mm 5 mps 748 mmHg 90%
20:00 +8°C° 0.6 mm 6 mps 748 mmHg 89%
21:00 +7°C° 0.3 mm 6 mps 748 mmHg 89%
22:00 +7°C° 0.3 mm 6 mps 748 mmHg 88%
23:00 +7°C° 0.3 mm 6 mps 748 mmHg 88%

Tomorrow, 1 November, Sunday

Time Temperature Precipitation Wind Pressure Humidity
00:00 +7°C° 0.1 mm 6 mps 748 mmHg 88%
01:00 +7°C° 0.1 mm 6 mps 748 mmHg 88%
02:00 +7°C° 0.1 mm 6 mps 748 mmHg 88%
03:00 +5°C° 0 mm 6 mps 748 mmHg 88%
04:00 +5°C° 0 mm 6 mps 748 mmHg 88%
05:00 +5°C° 0 mm 6 mps 747 mmHg 88%
06:00 +5°C° 0.3 mm 6 mps 747 mmHg 88%
07:00 +5°C° 0.3 mm 7 mps 747 mmHg 88%
08:00 +5°C° 0.3 mm 7 mps 747 mmHg 89%
09:00 +5°C° 0.1 mm 6 mps 747 mmHg 88%
10:00 +5°C° 0.1 mm 6 mps 746 mmHg 87%
11:00 +5°C° 0.1 mm 6 mps 746 mmHg 86%
12:00 +5°C° 1 mm 6 mps 746 mmHg 88%
13:00 +5°C° 1 mm 6 mps 746 mmHg 89%
14:00 +5°C° 1 mm 6 mps 746 mmHg 91%
15:00 +5°C° 0.3 mm 6 mps 746 mmHg 90%
16:00 +5°C° 0.3 mm 6 mps 745 mmHg 89%
17:00 +5°C° 0.3 mm 6 mps 745 mmHg 89%
18:00 +5°C° 0.2 mm 6 mps 745 mmHg 90%
19:00 +5°C° 0.2 mm 6 mps 746 mmHg 90%
20:00 +5°C° 0.2 mm 6 mps 746 mmHg 91%
21:00 +7°C° 0.3 mm 5 mps 746 mmHg 92%
22:00 +7°C° 0.3 mm 5 mps 746 mmHg 93%
23:00 +8°C° 0.3 mm 4 mps 746 mmHg 94%

Day after tomorrow, 2 November, Monday

Time Temperature Precipitation Wind Pressure Humidity
00:00 +8°C° 0.1 mm 4 mps 746 mmHg 93%
01:00 +8°C° 0.1 mm 4 mps 746 mmHg 92%
02:00 +9°C° 0.1 mm 3 mps 746 mmHg 92%
03:00 +8°C° 0 mm 3 mps 746 mmHg 92%
04:00 +8°C° 0 mm 3 mps 746 mmHg 92%
05:00 +7°C° 0 mm 2 mps 746 mmHg 93%
06:00 +7°C° 0 mm 2 mps 746 mmHg 93%
07:00 +7°C° 0 mm 3 mps 746 mmHg 93%
08:00 +7°C° 0 mm 3 mps 746 mmHg 94%
09:00 +7°C° 0.1 mm 3 mps 746 mmHg 91%
10:00 +8°C° 0.1 mm 3 mps 746 mmHg 89%
11:00 +9°C° 0.1 mm 3 mps 747 mmHg 86%
12:00 +9°C° 0 mm 3 mps 747 mmHg 86%
13:00 +10°C° 0 mm 3 mps 747 mmHg 86%
14:00 +10°C° 0 mm 3 mps 747 mmHg 86%
15:00 +9°C° 0 mm 3 mps 747 mmHg 88%
16:00 +9°C° 0 mm 3 mps 747 mmHg 90%
17:00 +9°C° 0 mm 3 mps 747 mmHg 91%
18:00 +9°C° 0 mm 3 mps 748 mmHg 92%
19:00 +9°C° 0 mm 3 mps 748 mmHg 92%
20:00 +8°C° 0 mm 3 mps 748 mmHg 93%
21:00 +8°C° 0.1 mm 3 mps 748 mmHg 93%
22:00 +8°C° 0.1 mm 3 mps 748 mmHg 93%
23:00 +8°C° 0.1 mm 3 mps 748 mmHg 93%

3 November, Tuesday

Time Temperature Precipitation Wind Pressure Humidity
00:00 +8°C° 0 mm 3 mps 748 mmHg 93%
01:00 +8°C° 0 mm 3 mps 749 mmHg 93%
02:00 +8°C° 0 mm 3 mps 749 mmHg 93%
03:00 +8°C° 0 mm 3 mps 749 mmHg 92%
04:00 +8°C° 0 mm 3 mps 749 mmHg 92%
05:00 +8°C° 0 mm 3 mps 749 mmHg 91%
06:00 +8°C° 0 mm 3 mps 749 mmHg 90%
07:00 +8°C° 0 mm 3 mps 750 mmHg 89%
08:00 +8°C° 0 mm 3 mps 750 mmHg 87%
09:00 +8°C° 0 mm 3 mps 750 mmHg 86%
10:00 +9°C° 0 mm 3 mps 750 mmHg 85%
11:00 +9°C° 0 mm 3 mps 751 mmHg 83%
12:00 +9°C° 0 mm 2 mps 751 mmHg 82%
13:00 +9°C° 0 mm 2 mps 751 mmHg 81%
14:00 +10°C° 0 mm 2 mps 751 mmHg 80%
15:00 +9°C° 0 mm 2 mps 751 mmHg 82%
16:00 +9°C° 0 mm 2 mps 751 mmHg 84%
17:00 +9°C° 0 mm 2 mps 751 mmHg 86%
18:00 +9°C° 0 mm 2 mps 752 mmHg 86%
19:00 +9°C° 0 mm 2 mps 752 mmHg 87%
20:00 +9°C° 0 mm 2 mps 753 mmHg 87%
21:00 +8°C° 0 mm 2 mps 753 mmHg 88%
22:00 +8°C° 0 mm 2 mps 753 mmHg 89%
23:00 +9°C° 0 mm 1 mps 753 mmHg 89%

4 November, Wednesday

Time Temperature Precipitation Wind Pressure Humidity
00:00 +9°C° 0 mm 1 mps 753 mmHg 89%
01:00 +9°C° 0 mm 1 mps 753 mmHg 89%
02:00 +8°C° 0 mm 1 mps 753 mmHg 90%
03:00 +8°C° 0 mm 1 mps 754 mmHg 91%
04:00 +7°C° 0 mm 1 mps 754 mmHg 92%
05:00 +7°C° 0 mm 1 mps 754 mmHg 93%
06:00 +7°C° 0 mm 1 mps 754 mmHg 92%
07:00 +7°C° 0 mm 1 mps 755 mmHg 92%
08:00 +6°C° 0 mm 0 mps 755 mmHg 91%
09:00 +7°C° 0 mm 0 mps 755 mmHg 86%
10:00 +8°C° 0 mm 0 mps 755 mmHg 81%
11:00 +10°C° 0 mm 0 mps 756 mmHg 76%
12:00 +10°C° 0 mm 0 mps 756 mmHg 74%
13:00 +10°C° 0 mm 0 mps 756 mmHg 72%
14:00 +11°C° 0 mm 0 mps 756 mmHg 70%
15:00 +10°C° 0 mm 0 mps 756 mmHg 75%
16:00 +9°C° 0 mm 0 mps 756 mmHg 79%
17:00 +8°C° 0 mm 0 mps 756 mmHg 84%
18:00 +9°C° 0 mm 1 mps 756 mmHg 85%
19:00 +9°C° 0 mm 1 mps 757 mmHg 85%
20:00 +9°C° 0 mm 1 mps 757 mmHg 86%
21:00 +9°C° 0 mm 1 mps 757 mmHg 87%
22:00 +9°C° 0 mm 1 mps 757 mmHg 87%
23:00 +9°C° 0 mm 1 mps 757 mmHg 88%

5 November, Thursday

Time Temperature Precipitation Wind Pressure Humidity
00:00 +9°C° 0.2 mm 1 mps 758 mmHg 90%
01:00 +9°C° 0.2 mm 1 mps 758 mmHg 92%
02:00 +8°C° 0.2 mm 2 mps 758 mmHg 94%
03:00 +8°C° 0.1 mm 2 mps 758 mmHg 94%
04:00 +7°C° 0.1 mm 2 mps 758 mmHg 94%
05:00 +7°C° 0.1 mm 2 mps 758 mmHg 94%
06:00 +7°C° 0 mm 2 mps 759 mmHg 93%
07:00 +6°C° 0 mm 2 mps 759 mmHg 92%
08:00 +6°C° 0 mm 2 mps 759 mmHg 91%
09:00 +7°C° 0 mm 2 mps 759 mmHg 84%
10:00 +7°C° 0 mm 2 mps 759 mmHg 77%
11:00 +8°C° 0 mm 2 mps 759 mmHg 71%
12:00 +8°C° 0 mm 2 mps 759 mmHg 69%
13:00 +8°C° 0 mm 3 mps 759 mmHg 67%
14:00 +8°C° 0 mm 3 mps 759 mmHg 65%
15:00 +8°C° 0 mm 2 mps 759 mmHg 69%
16:00 +7°C° 0 mm 2 mps 759 mmHg 74%
17:00 +6°C° 0 mm 2 mps 759 mmHg 78%
18:00 +5°C° 0 mm 2 mps 759 mmHg 80%
19:00 +5°C° 0 mm 2 mps 759 mmHg 82%
20:00 +5°C° 0 mm 2 mps 759 mmHg 84%
21:00 +4°C° 0 mm 2 mps 759 mmHg 86%
22:00 +4°C° 0 mm 2 mps 760 mmHg 87%
23:00 +3°C° 0 mm 2 mps 760 mmHg 89%
Show more

We Need Your Consent

Meteoprog and our Service Providers may store and access personal data such as cookies, device identifiers or other similar technologies on your device and process such data to personalise content and ads, as well as provide social media features and to analyse the traffic.

  • Store and/or access information on your device

    Cookies, device identifiers or other information can be stored or accessed on your device for the purposes indicated above.

  • Personalised ads and content, ad and content measurement, audience insights, and products development

    Ads and content can be personalised based on a profile. More data can be added to better personalise ads and content. Ad and content performance can be measured. Insights about the audience who saw the ads and content can be derived. Such data can be used to develop or improve user’s experience, systems and software.

By clicking ‘I Agree’ you will allow the use of indicated cookies, device identifiers, web beacons or other similar technologies. Your settings can be changed in the browser on your device.

For certain purposes, legitimate interests may be relied on, rather than consent. You can read more about this in our Privacy and Cookie Policy.